Change the Weather History Date:

Monday, March 31, 2014

  Actual Average Record
Temperature  
Mean Temperature 49 °F -  
Max Temperature 54 °F 53 °F 61 °F (2011)
Min Temperature 45 °F 38 °F 28 °F (2008)
Degree Days  
Heating Degree Days 16    
Moisture  
Dew Point 38 °F    
Average Humidity 71    
Maximum Humidity 86    
Minimum Humidity 49    
Precipitation  
Precipitation 0.29 in - - ()
Sea Level Pressure  
Sea Level Pressure 29.80 in    
Wind  
Wind Speed 11 mph (SSE)    
Max Wind Speed 21 mph    
Max Gust Speed 30 mph    
Visibility 9 miles    
Events Rain    
Averages and records for this station are not official NWS values.
T = Trace of Precipitation, MM = Missing Value Source: NWS Daily Summary

Daily Weather History Graph

Daily Weather History Graph

Search for Another Location

Airport or City:

Trip Planner

Search our weather history database for the weather conditions in past years. The results will help you decide how hot, cold, wet, or windy it might be!

Date:

Astronomy

Mar. 31, 2014 Rise Set
Actual Time 7:01 AM PDT 7:40 PM PDT
Civil Twilight 6:33 AM PDT 8:08 PM PDT
Nautical Twilight 6:00 AM PDT 8:40 PM PDT
Astronomical Twilight 5:27 AM PDT 9:14 PM PDT
Moon 7:27 AM PDT (3/31) 9:06 PM PDT (3/31)
Length of Visible Light 13h 34m
Length of Day
12h 39m
New Moon, 1% of the Moon is Illuminated
Mar 31
New Moon
Apr 7
First Quarter
Apr 15
Full
Apr 22
Last Quarter
Apr 28
New

Hourly Weather History & Observations

Time (PDT) Temp. Windchill Dew Point Humidity Pressure Visibility Wind Dir Wind Speed Gust Speed Precip Events Conditions
12:53 AM 46.9 °F - 36.0 °F 66% 29.97 in 10.0 mi ESE 9.2 mph - N/A   Clear
1:53 AM 48.0 °F - 35.1 °F 61% 29.94 in 10.0 mi SE 12.7 mph - N/A   Clear
2:53 AM 48.0 °F - 33.1 °F 56% 29.90 in 10.0 mi SE 13.8 mph 24.2 mph N/A   Mostly Cloudy
3:53 AM 50.0 °F - 32.0 °F 50% 29.86 in 10.0 mi SE 11.5 mph - N/A   Overcast
4:53 AM 50.0 °F - 33.1 °F 52% 29.81 in 10.0 mi SE 15.0 mph 26.5 mph N/A   Mostly Cloudy
5:53 AM 51.1 °F - 34.0 °F 52% 29.79 in 10.0 mi SE 16.1 mph 25.3 mph N/A   Overcast
6:53 AM 52.0 °F - 33.1 °F 49% 29.75 in 10.0 mi SSE 15.0 mph 25.3 mph N/A   Overcast
7:53 AM 52.0 °F - 33.1 °F 49% 29.76 in 10.0 mi SSE 11.5 mph 21.9 mph N/A   Overcast
8:53 AM 48.9 °F - 39.0 °F 69% 29.78 in 9.0 mi SSE 10.4 mph - 0.01 in Rain Light Rain
9:53 AM 46.9 °F - 39.9 °F 77% 29.78 in 9.0 mi SSE 12.7 mph - 0.04 in Rain Light Rain
10:53 AM 46.0 °F 39.6 °F 41.0 °F 83% 29.76 in 9.0 mi SE 15.0 mph 24.2 mph 0.05 in Rain Light Rain
11:53 AM 48.0 °F - 41.0 °F 77% 29.74 in 10.0 mi SE 8.1 mph 19.6 mph 0.01 in   Overcast
12:53 PM 48.0 °F - 41.0 °F 77% 29.77 in 9.0 mi South 8.1 mph - 0.00 in Rain Light Rain
1:35 PM 46.0 °F 38.3 °F 41.0 °F 83% 29.77 in 2.5 mi South 20.7 mph 29.9 mph 0.06 in Rain Rain
1:45 PM 46.0 °F 39.6 °F 41.0 °F 83% 29.77 in 4.0 mi South 15.0 mph 26.5 mph 0.07 in Rain Light Rain
1:53 PM 46.0 °F 38.5 °F 41.0 °F 83% 29.80 in 8.0 mi South 19.6 mph 26.5 mph 0.08 in Rain Light Rain
2:30 PM 45.0 °F 39.7 °F 41.0 °F 86% 29.78 in 9.0 mi SE 10.4 mph - 0.09 in Rain Light Rain
2:53 PM 45.0 °F 40.1 °F 41.0 °F 86% 29.81 in 10.0 mi SE 9.2 mph - 0.09 in   Overcast
3:53 PM 51.1 °F - 43.0 °F 74% 29.79 in 10.0 mi SSE 8.1 mph - N/A   Mostly Cloudy
4:53 PM 51.1 °F - 41.0 °F 68% 29.79 in 10.0 mi SSE 6.9 mph - N/A   Mostly Cloudy
5:53 PM 53.1 °F - 37.0 °F 55% 29.78 in 10.0 mi South 8.1 mph - N/A   Scattered Clouds
6:53 PM 50.0 °F - 41.0 °F 71% 29.78 in 10.0 mi SW 4.6 mph - N/A   Partly Cloudy
7:53 PM 45.0 °F 42.6 °F 41.0 °F 86% 29.77 in 10.0 mi ESE 4.6 mph - N/A   Clear
8:53 PM 46.9 °F - 42.1 °F 83% 29.79 in 10.0 mi SE 5.8 mph - 0.00 in Rain Light Rain
9:53 PM 46.9 °F - 41.0 °F 80% 29.80 in 10.0 mi SE 5.8 mph - 0.01 in   Overcast
10:53 PM 46.0 °F 41.9 °F 39.0 °F 76% 29.80 in 10.0 mi SE 8.1 mph - 0.00 in   Overcast
11:53 PM 46.0 °F 40.6 °F 37.9 °F 73% 29.81 in 10.0 mi SE 11.5 mph - N/A   Mostly Cloudy